Hourly Data Report for April 09, 2003

TORONTO CITY
ONTARIO

43°40'00.000" N
79°24'00.000" W
112.50 m
6158355
71508
XTO

Download Data

Hourly Data (April 2003)
Hourly Data Report for April 9, 2003
TIME
LST
Temp Definition
°C
Dew Point Definition
°C
Rel Hum Definition
%
Precip. Amount Definition
mm

Wind Dir Definition
10's deg

Wind Spd Definition
km/h
Visibility Definition
km
Stn Press Definition
kPa
Hmdx Definition


Wind Chill Definition


Weather Definition


00:00 -0.4 -4.4 74   LegendMM LegendMM LegendMM 101.20     LegendNANA
01:00 -0.5 -4.6 74   LegendMM LegendMM LegendMM 101.18     LegendNANA
02:00 -0.4 -4.6 73   LegendMM LegendMM LegendMM 101.15     LegendNANA
03:00 -0.5 -4.5 74   LegendMM LegendMM LegendMM 101.16     LegendNANA
04:00 -0.9 -4.5 77   LegendMM LegendMM LegendMM 101.20     LegendNANA
05:00 -1.6 -5.0 78   LegendMM LegendMM LegendMM 101.15     LegendNANA
06:00 -1.7 -5.3 76   LegendMM LegendMM LegendMM 101.12     LegendNANA
07:00 -1.2 -5.1 75   LegendMM LegendMM LegendMM 101.19     LegendNANA
08:00 0.5 -4.8 68   LegendMM LegendMM LegendMM 101.26     LegendNANA
09:00 1.8 -4.9 61   LegendMM LegendMM LegendMM 101.19     LegendNANA
10:00 2.9 -4.4 59   LegendMM LegendMM LegendMM 101.20     LegendNANA
11:00 4.0 -3.3 59   LegendMM LegendMM LegendMM 101.15     LegendNANA
12:00 2.6 -2.7 68   LegendMM LegendMM LegendMM 101.15     LegendNANA
13:00 3.3 -1.9 69   LegendMM LegendMM LegendMM 101.12     LegendNANA
14:00 2.9 -2.6 67   LegendMM LegendMM LegendMM 101.06     LegendNANA
15:00
16:00 2.1 -1.6 76   LegendMM LegendMM LegendMM 101.03     LegendNANA
17:00 2.0 -1.7 76   LegendMM LegendMM LegendMM 101.02     LegendNANA
18:00 1.5 -1.3 82   LegendMM LegendMM LegendMM 100.99     LegendNANA
19:00 1.1 -1.7 82   LegendMM LegendMM LegendMM 100.97     LegendNANA
20:00 0.7 -1.8 83   LegendMM LegendMM LegendMM 101.00     LegendNANA
21:00 0.9 -1.9 82   LegendMM LegendMM LegendMM 101.03     LegendNANA
22:00 1.0 -1.8 82   LegendMM LegendMM LegendMM 101.04     LegendNANA
23:00 1.0 -1.8 82   LegendMM LegendMM LegendMM 101.02     LegendNANA

Notes on Data Quality.

Legend

  • E = Estimated
  • M = Missing
  • NA = Not Available*
  • [empty] = Indicates an unobserved value
Date modified: